START_TIME,STEP,MOV.,M15,t_acc.,M20,t_acc.
1979-07-02 03:00:44.820 ,1,0,0.,24.0,0.,24.0
1979-07-02 03:01:08.820 ,2,1,0.,24.0,0.,24.0
1979-07-02 03:01:32.820 ,2,0,0.,24.0,0.,24.0
1979-07-02 03:01:56.820 ,3,1,0.,24.0,0.,24.0
1979-07-02 03:02:20.820 ,3,0,0.,24.0,0.,24.0
1979-07-02 03:02:44.820 ,4,1,0.,24.0,0.,24.0
1979-07-02 03:03:08.820 ,4,0,0.,24.0,0.,24.0
1979-07-02 03:03:32.820 ,5,1,0.,24.0,0.,24.0
1979-07-02 03:03:56.820 ,5,0,0.,24.0,0.,24.0
1979-07-02 03:04:20.820 ,6,1,0.,24.0,0.,24.0
1979-07-02 03:04:44.820 ,6,0,0.,24.0,0.,24.0
1979-07-02 03:05:08.820 ,7,1,0.,24.0,0.,24.0
1979-07-02 03:05:32.820 ,7,0,0.,24.0,0.,24.0
1979-07-02 03:05:56.820 ,7,1,0.,24.0,0.,24.0
1979-07-02 03:06:20.820 ,7,0,0.,24.0,0.,24.0
1979-07-02 03:06:44.820 ,6,1,0.,24.0,0.,24.0
1979-07-02 03:07:08.820 ,6,0,0.,24.0,0.,24.0
1979-07-02 03:07:32.820 ,5,1,0.,24.0,0.,24.0
1979-07-02 03:07:56.820 ,5,0,0.,24.0,0.,24.0
1979-07-02 03:08:20.820 ,4,1,0.,24.0,0.,24.0
1979-07-02 03:08:44.820 ,4,0,0.,24.0,0.,24.0
1979-07-02 03:09:08.820 ,3,1,0.,24.0,0.,24.0
1979-07-02 03:09:32.820 ,3,0,0.,24.0,0.,24.0
1979-07-02 03:09:56.820 ,2,1,0.,24.0,0.,24.0
1979-07-02 03:10:20.820 ,2,0,0.,24.0,0.,24.0
1979-07-02 03:10:44.820 ,1,1,0.,24.0,0.,24.0
1979-07-02 03:11:08.820 ,1,0,0.,24.0,0.,24.0
1979-07-02 03:11:32.820 ,0,1,0.,24.0,0.,24.0
1979-07-02 03:11:56.820 ,0,0,0.,24.0,0.,24.0
1979-07-02 03:12:20.820 ,0,1,0.,24.0,0.,24.0
1979-07-02 03:12:44.820 ,0,0,0.,24.0,0.,24.0
1979-07-02 03:13:08.820 ,1,1,0.,24.0,0.,24.0
1979-07-02 03:13:32.820 ,1,0,0.,24.0,0.,24.0
1979-07-02 03:13:56.820 ,2,1,0.,24.0,0.,24.0
1979-07-02 03:14:20.820 ,2,0,0.,24.0,0.,24.0
1979-07-02 03:14:44.820 ,3,1,0.,24.0,0.,24.0
1979-07-02 03:15:08.820 ,3,0,0.,24.0,0.,24.0
1979-07-02 03:15:32.820 ,4,1,0.,24.0,0.,24.0
1979-07-02 03:15:56.820 ,4,0,0.,24.0,0.,24.0
1979-07-02 03:16:20.820 ,5,1,0.,24.0,0.,24.0
1979-07-02 03:16:44.820 ,5,0,0.,24.0,0.,24.0
1979-07-02 03:17:08.820 ,6,1,0.,24.0,0.,24.0
1979-07-02 03:17:32.820 ,6,0,0.,24.0,0.,24.0
1979-07-02 03:17:56.820 ,7,1,0.,24.0,0.,24.0
1979-07-02 03:18:20.820 ,7,0,0.,24.0,0.,24.0
1979-07-02 03:18:44.820 ,7,1,0.,24.0,0.,24.0
1979-07-02 03:19:08.820 ,7,0,0.,24.0,0.,24.0
1979-07-02 03:19:32.820 ,6,1,0.,24.0,0.,24.0
1979-07-02 03:19:56.820 ,6,0,0.,24.0,0.,24.0
1979-07-02 03:20:20.820 ,5,1,0.,24.0,0.,24.0
1979-07-02 03:20:44.820 ,5,0,0.,24.0,0.,24.0
1979-07-02 03:21:08.820 ,4,1,0.,24.0,0.,24.0
1979-07-02 03:21:32.820 ,4,0,0.,24.0,0.,24.0
1979-07-02 03:21:56.820 ,3,1,0.,24.0,0.,24.0
1979-07-02 03:22:20.820 ,3,0,0.,24.0,0.,24.0
1979-07-02 03:22:44.820 ,2,1,0.,24.0,0.,24.0
1979-07-02 03:23:08.820 ,2,0,0.,24.0,0.,24.0
1979-07-02 03:23:32.820 ,1,1,0.,24.0,0.,24.0
1979-07-02 03:23:56.820 ,1,0,0.,24.0,0.,24.0
1979-07-02 03:24:20.820 ,0,1,0.,24.0,0.,24.0
1979-07-02 03:24:44.820 ,0,0,0.,24.0,0.,24.0
1979-07-02 03:25:08.820 ,0,1,0.,24.0,0.,24.0
1979-07-02 03:25:32.820 ,0,0,0.,24.0,0.,24.0
1979-07-02 03:25:56.820 ,1,1,0.,24.0,0.,24.0
1979-07-02 03:26:20.820 ,1,0,0.,24.0,0.,24.0
1979-07-02 03:26:44.820 ,2,1,0.,24.0,0.,24.0
1979-07-02 03:27:08.820 ,2,0,0.,24.0,0.,24.0
1979-07-02 03:27:32.820 ,3,1,0.,24.0,0.,24.0
1979-07-02 03:27:56.820 ,3,0,0.,24.0,0.,24.0
1979-07-02 03:28:20.820 ,4,1,0.,24.0,0.,24.0
1979-07-02 03:28:44.820 ,4,0,0.,24.0,0.,24.0
1979-07-02 03:29:08.820 ,5,1,0.,24.0,0.,24.0
1979-07-02 03:29:32.820 ,5,0,0.,24.0,0.,24.0
1979-07-02 03:29:56.820 ,6,1,0.,24.0,0.,24.0
1979-07-02 03:30:20.820 ,6,0,0.,24.0,0.,24.0
1979-07-02 03:30:44.820 ,7,0,0.,24.0,0.,24.0
1979-07-02 03:31:08.820 ,7,0,0.,24.0,0.,24.0
1979-07-02 03:31:32.820 ,3,1,0.,24.0,0.,24.0
1979-07-02 03:31:56.820 ,0,1,0.,24.0,0.,24.0
1979-07-02 03:32:20.820 ,4,1,0.,24.0,0.,24.0
1979-07-02 03:32:44.820 ,7,1,0.,24.0,0.,24.0
1979-07-02 03:33:08.820 ,3,1,0.,24.0,0.,24.0
1979-07-02 03:33:32.820 ,0,1,0.,24.0,0.,24.0
1979-07-02 03:33:56.820 ,4,1,0.,24.0,0.,24.0
1979-07-02 03:34:20.820 ,7,1,0.,24.0,0.,24.0
1979-07-02 03:34:44.820 ,3,1,0.,24.0,0.,24.0
1979-07-02 03:35:08.820 ,0,1,0.,24.0,0.,24.0
1979-07-02 03:35:32.820 ,4,1,0.,24.0,0.,24.0
1979-07-02 03:35:56.820 ,7,1,0.,24.0,0.,24.0
1979-07-02 03:36:20.820 ,3,1,0.,24.0,0.,24.0
1979-07-02 03:36:44.820 ,0,1,0.,24.0,0.,24.0
1979-07-02 03:37:08.820 ,4,1,0.,24.0,0.,24.0
1979-07-02 03:37:32.820 ,7,1,0.,24.0,0.,24.0
1979-07-02 03:37:56.820 ,3,1,0.,24.0,0.,24.0
1979-07-02 03:38:20.820 ,0,1,0.,24.0,0.,24.0
1979-07-02 03:38:44.820 ,4,1,0.,24.0,0.,24.0
1979-07-02 03:39:08.820 ,7,1,0.,24.0,0.,24.0
1979-07-02 03:39:32.820 ,3,1,0.,24.0,0.,24.0
1979-07-02 03:39:56.820 ,0,1,0.,24.0,0.,24.0
1979-07-02 03:40:20.820 ,4,1,0.,24.0,0.,24.0
1979-07-02 03:40:44.820 ,7,1,0.,24.0,0.,24.0
1979-07-02 03:41:08.820 ,3,1,0.,24.0,0.,24.0
1979-07-02 03:41:32.820 ,0,1,0.,24.0,0.,24.0
1979-07-02 03:41:56.820 ,0,0,0.,24.0,0.,24.0
1979-07-02 03:42:20.820 ,0,0,0.,24.0,0.,24.0
1979-07-02 03:42:44.820 ,5,1,0.,24.0,0.,24.0
1979-07-02 03:43:08.820 ,5,0,0.,24.0,0.,24.0
1979-07-02 03:43:32.820 ,4,1,0.,24.0,0.,24.0
1979-07-02 03:43:56.820 ,4,0,0.,24.0,0.,24.0
1979-07-02 03:44:20.820 ,3,1,0.,24.0,0.,24.0
1979-07-02 03:44:44.820 ,3,0,0.,24.0,0.,24.0
1979-07-02 03:45:08.820 ,2,1,0.,24.0,0.,24.0
1979-07-02 03:45:32.820 ,2,0,0.,24.0,0.,24.0
1979-07-02 03:45:56.820 ,1,1,0.,24.0,0.,24.0
1979-07-02 03:46:20.820 ,1,0,0.,24.0,0.,24.0
1979-07-02 03:46:44.820 ,0,1,0.,24.0,0.,24.0
1979-07-02 03:47:08.820 ,0,0,0.,24.0,0.,24.0
1979-07-02 03:47:32.820 ,0,1,0.,24.0,0.,24.0
1979-07-02 03:47:56.820 ,0,0,0.,24.0,0.,24.0
1979-07-02 03:48:20.820 ,1,1,0.,24.0,0.,24.0
1979-07-02 03:48:44.820 ,1,0,0.,24.0,0.,24.0
1979-07-02 03:49:08.820 ,2,1,0.,24.0,0.,24.0
1979-07-02 03:49:32.820 ,2,0,0.,24.0,0.,24.0
1979-07-02 03:49:56.820 ,3,1,0.,24.0,0.,24.0
1979-07-02 03:50:20.820 ,3,0,0.,24.0,0.,24.0
1979-07-02 03:50:44.810 ,4,1,0.,24.0,0.,24.0
1979-07-02 03:51:08.810 ,4,0,0.,24.0,0.,24.0
1979-07-02 03:51:32.810 ,5,1,0.,24.0,0.,24.0
1979-07-02 03:51:56.810 ,5,0,0.,24.0,0.,24.0
1979-07-02 03:52:20.810 ,6,1,0.,24.0,0.,24.0
1979-07-02 03:52:44.810 ,6,0,0.,24.0,0.,24.0
1979-07-02 03:53:08.810 ,7,1,0.,24.0,0.,24.0
1979-07-02 03:53:32.810 ,7,0,0.,24.0,0.,24.0
1979-07-02 03:53:56.810 ,7,1,0.,24.0,0.,24.0
1979-07-02 03:54:20.810 ,7,0,0.,24.0,0.,24.0
1979-07-02 03:54:44.810 ,6,1,0.,24.0,0.,24.0
1979-07-02 03:55:08.810 ,6,0,0.,24.0,0.,24.0
1979-07-02 03:55:32.810 ,5,1,0.,24.0,0.,24.0
1979-07-02 03:55:56.810 ,5,0,0.,24.0,0.,24.0
1979-07-02 03:56:20.810 ,4,1,0.,24.0,0.,24.0
1979-07-02 03:56:44.810 ,4,0,0.,24.0,0.,24.0
1979-07-02 03:57:08.810 ,3,1,0.,24.0,0.,24.0
1979-07-02 03:57:32.810 ,3,0,0.,24.0,0.,24.0
1979-07-02 03:57:56.810 ,2,1,0.,24.0,0.,24.0
1979-07-02 03:58:20.810 ,2,0,0.,24.0,0.,24.0
1979-07-02 03:58:44.810 ,1,1,0.,24.0,0.,24.0
1979-07-02 03:59:08.810 ,1,0,0.,24.0,0.,24.0
1979-07-02 03:59:32.810 ,0,1,0.,24.0,0.,24.0
1979-07-02 03:59:56.810 ,0,0,0.,24.0,0.,24.0
1979-07-02 04:00:20.820 ,0,1,0.,24.0,0.,24.0
1979-07-02 04:00:44.820 ,0,0,0.,24.0,0.,24.0
1979-07-02 04:01:08.820 ,1,1,1.,24.0,0.,24.0
1979-07-02 04:01:32.820 ,1,0,0.,24.0,0.,24.0
1979-07-02 04:01:56.820 ,2,1,0.,24.0,0.,24.0
1979-07-02 04:02:20.820 ,2,0,0.,24.0,0.,24.0
1979-07-02 04:02:44.820 ,3,1,0.,24.0,0.,24.0
1979-07-02 04:03:08.820 ,3,0,0.,24.0,0.,24.0
1979-07-02 04:03:32.820 ,4,1,0.,24.0,0.,24.0
1979-07-02 04:03:56.820 ,4,0,0.,24.0,0.,24.0
1979-07-02 04:04:20.820 ,5,1,0.,24.0,0.,24.0
1979-07-02 04:04:44.820 ,5,0,0.,24.0,0.,24.0
1979-07-02 04:05:08.820 ,6,1,0.,24.0,0.,24.0
1979-07-02 04:05:32.820 ,6,0,0.,24.0,0.,24.0
1979-07-02 04:05:56.820 ,7,1,0.,24.0,0.,24.0
1979-07-02 04:06:20.820 ,7,0,0.,24.0,0.,24.0
1979-07-02 04:06:44.820 ,7,1,0.,24.0,0.,24.0
1979-07-02 04:07:08.820 ,7,0,0.,24.0,0.,24.0
1979-07-02 04:07:32.820 ,6,1,0.,24.0,0.,24.0
1979-07-02 04:07:56.820 ,6,0,0.,24.0,0.,24.0
1979-07-02 04:08:20.820 ,5,1,0.,24.0,0.,24.0
1979-07-02 04:08:44.820 ,5,0,0.,24.0,0.,24.0
1979-07-02 04:09:08.820 ,4,1,0.,24.0,0.,24.0
1979-07-02 04:09:32.820 ,4,0,0.,24.0,0.,24.0
1979-07-02 04:09:56.820 ,3,1,0.,24.0,0.,24.0
1979-07-02 04:10:20.820 ,3,0,0.,24.0,0.,24.0
1979-07-02 04:10:44.810 ,2,1,0.,24.0,0.,24.0
1979-07-02 04:11:08.810 ,2,0,0.,24.0,0.,24.0
1979-07-02 04:11:32.810 ,1,1,0.,24.0,0.,24.0
1979-07-02 04:11:56.810 ,1,0,0.,24.0,0.,24.0
1979-07-02 04:12:20.810 ,0,1,0.,24.0,0.,24.0
1979-07-02 04:12:44.810 ,0,0,0.,24.0,0.,24.0
1979-07-02 04:13:08.810 ,0,1,0.,24.0,0.,24.0
1979-07-02 04:13:32.810 ,0,0,0.,24.0,0.,24.0
1979-07-02 04:13:56.810 ,1,1,0.,24.0,0.,24.0
1979-07-02 04:14:20.810 ,1,0,0.,24.0,0.,24.0
1979-07-02 04:14:44.810 ,2,1,0.,24.0,0.,24.0
1979-07-02 04:15:08.810 ,2,0,0.,24.0,0.,24.0
1979-07-02 04:15:32.810 ,3,1,0.,24.0,0.,24.0
1979-07-02 04:15:56.810 ,3,0,0.,24.0,0.,24.0
1979-07-02 04:16:20.810 ,4,1,0.,24.0,0.,24.0
1979-07-02 04:16:44.810 ,4,0,0.,24.0,0.,24.0
1979-07-02 04:17:08.810 ,5,1,0.,24.0,0.,24.0
1979-07-02 04:17:32.810 ,5,0,0.,24.0,0.,24.0
1979-07-02 04:17:56.810 ,6,1,0.,24.0,0.,24.0
1979-07-02 04:18:20.810 ,6,0,0.,24.0,0.,24.0
1979-07-02 04:18:44.810 ,7,0,0.,24.0,0.,24.0
1979-07-02 04:19:08.810 ,7,0,0.,24.0,0.,24.0
1979-07-02 04:19:32.810 ,3,1,0.,24.0,0.,24.0
1979-07-02 04:19:56.810 ,0,1,0.,24.0,0.,24.0
1979-07-02 04:20:20.810 ,4,1,0.,24.0,0.,24.0
1979-07-02 04:20:44.810 ,7,1,0.,24.0,0.,24.0
1979-07-02 04:21:08.810 ,3,1,0.,24.0,0.,24.0
1979-07-02 04:21:32.810 ,0,1,0.,24.0,0.,24.0
1979-07-02 04:21:56.810 ,4,1,0.,24.0,0.,24.0
1979-07-02 04:22:20.810 ,7,1,0.,24.0,0.,24.0
1979-07-02 04:22:44.810 ,3,1,0.,24.0,0.,24.0
1979-07-02 04:23:08.810 ,0,1,0.,24.0,0.,24.0
1979-07-02 04:23:32.810 ,4,1,0.,24.0,0.,24.0
1979-07-02 04:23:56.810 ,7,1,0.,24.0,0.,24.0
1979-07-02 04:24:20.810 ,3,1,0.,24.0,0.,24.0
1979-07-02 04:24:44.810 ,0,1,0.,24.0,0.,24.0
1979-07-02 04:25:08.810 ,4,1,0.,24.0,0.,24.0
1979-07-02 04:25:32.810 ,7,1,0.,24.0,0.,24.0
1979-07-02 04:25:56.810 ,3,1,0.,24.0,0.,24.0
1979-07-02 04:26:20.810 ,0,1,0.,24.0,0.,24.0
1979-07-02 04:26:44.810 ,4,1,0.,24.0,0.,24.0
1979-07-02 04:27:08.810 ,7,1,0.,24.0,0.,24.0
1979-07-02 04:27:32.810 ,3,1,0.,24.0,0.,24.0
1979-07-02 04:27:56.810 ,0,1,0.,24.0,0.,24.0
1979-07-02 04:28:20.810 ,4,1,0.,24.0,0.,24.0
1979-07-02 04:28:44.810 ,7,1,0.,24.0,0.,24.0
1979-07-02 04:29:08.810 ,3,1,0.,24.0,0.,24.0
1979-07-02 04:29:32.810 ,0,1,0.,24.0,0.,24.0
1979-07-02 04:29:56.810 ,0,0,0.,24.0,0.,24.0
1979-07-02 04:30:20.810 ,0,0,0.,24.0,0.,24.0
1979-07-02 04:30:44.810 ,5,1,0.,24.0,0.,24.0
1979-07-02 04:31:08.810 ,5,0,0.,24.0,0.,24.0
1979-07-02 04:31:32.810 ,4,1,0.,24.0,0.,24.0
1979-07-02 04:31:56.810 ,4,0,0.,24.0,0.,24.0
1979-07-02 04:32:20.810 ,3,1,0.,24.0,0.,24.0
1979-07-02 04:32:44.810 ,3,0,0.,24.0,0.,24.0
1979-07-02 04:33:08.810 ,2,1,0.,24.0,0.,24.0
1979-07-02 04:33:32.810 ,2,0,0.,24.0,0.,24.0
1979-07-02 04:33:56.810 ,1,1,0.,24.0,0.,24.0
1979-07-02 04:34:20.810 ,1,0,0.,24.0,0.,24.0
1979-07-02 04:34:44.810 ,0,1,1.,24.0,0.,24.0
1979-07-02 04:35:08.810 ,0,0,0.,24.0,0.,24.0
1979-07-02 04:35:32.810 ,0,1,0.,24.0,0.,24.0
1979-07-02 04:35:56.810 ,0,0,0.,24.0,0.,24.0
1979-07-02 04:36:20.810 ,1,1,0.,24.0,0.,24.0
1979-07-02 04:36:44.810 ,1,0,0.,24.0,0.,24.0
1979-07-02 04:37:08.810 ,2,1,0.,24.0,0.,24.0
1979-07-02 04:37:32.810 ,2,0,0.,24.0,0.,24.0
1979-07-02 04:37:56.810 ,3,1,0.,24.0,0.,24.0
1979-07-02 04:38:20.810 ,3,0,0.,24.0,0.,24.0
1979-07-02 04:38:44.810 ,4,1,0.,24.0,0.,24.0
1979-07-02 04:39:08.810 ,4,0,0.,24.0,0.,24.0
1979-07-02 04:39:32.810 ,5,1,0.,24.0,0.,24.0
1979-07-02 04:39:56.810 ,5,0,0.,24.0,0.,24.0
1979-07-02 04:40:20.810 ,6,1,0.,24.0,0.,24.0
1979-07-02 04:40:44.810 ,6,0,0.,24.0,0.,24.0
1979-07-02 04:41:08.810 ,7,1,0.,24.0,0.,24.0
1979-07-02 04:41:32.810 ,7,0,0.,24.0,0.,24.0
1979-07-02 04:41:56.810 ,7,1,0.,24.0,0.,24.0
1979-07-02 04:42:20.810 ,7,0,0.,24.0,0.,24.0
1979-07-02 04:42:44.810 ,6,1,0.,24.0,0.,24.0
1979-07-02 04:43:08.810 ,6,0,0.,24.0,0.,24.0
1979-07-02 04:43:32.810 ,5,1,0.,24.0,0.,24.0
1979-07-02 04:43:56.810 ,5,0,0.,24.0,0.,24.0
1979-07-02 04:44:20.810 ,4,1,0.,24.0,0.,24.0
1979-07-02 04:44:44.810 ,4,0,0.,24.0,0.,24.0
1979-07-02 04:45:08.810 ,3,1,0.,24.0,0.,24.0
1979-07-02 04:45:32.810 ,3,0,0.,24.0,0.,24.0
1979-07-02 04:45:56.810 ,2,1,0.,24.0,0.,24.0
1979-07-02 04:46:20.810 ,2,0,0.,24.0,0.,24.0
1979-07-02 04:46:44.810 ,1,1,0.,24.0,0.,24.0
1979-07-02 04:47:08.810 ,1,0,0.,24.0,0.,24.0
1979-07-02 04:47:32.810 ,0,1,0.,24.0,0.,24.0
1979-07-02 04:47:56.810 ,0,0,0.,24.0,0.,24.0
1979-07-02 04:48:20.810 ,0,1,0.,24.0,0.,24.0
1979-07-02 04:48:44.810 ,0,0,0.,24.0,0.,24.0
1979-07-02 04:49:08.810 ,1,1,0.,24.0,0.,24.0
1979-07-02 04:49:32.810 ,1,0,0.,24.0,0.,24.0
1979-07-02 04:49:56.810 ,2,1,0.,24.0,0.,24.0
1979-07-02 04:50:20.810 ,2,0,0.,24.0,0.,24.0
1979-07-02 04:50:44.810 ,3,1,0.,24.0,0.,24.0
1979-07-02 04:51:08.810 ,3,0,0.,24.0,0.,24.0
1979-07-02 04:51:32.810 ,4,1,0.,24.0,0.,24.0
1979-07-02 04:51:56.810 ,4,0,0.,24.0,0.,24.0
1979-07-02 04:52:20.810 ,5,1,0.,24.0,0.,24.0
1979-07-02 04:52:44.810 ,5,0,0.,24.0,0.,24.0
1979-07-02 04:53:08.810 ,6,1,0.,24.0,0.,24.0
1979-07-02 04:53:32.810 ,6,0,0.,24.0,0.,24.0
1979-07-02 04:53:56.810 ,7,1,0.,24.0,0.,24.0
1979-07-02 04:54:20.810 ,7,0,0.,24.0,0.,24.0
1979-07-02 04:54:44.810 ,7,1,0.,24.0,0.,24.0
1979-07-02 04:55:08.810 ,7,0,0.,24.0,0.,24.0
1979-07-02 04:55:32.810 ,6,1,0.,24.0,0.,24.0
1979-07-02 04:55:56.810 ,6,0,0.,24.0,0.,24.0
1979-07-02 04:56:20.810 ,5,1,0.,24.0,0.,24.0
1979-07-02 04:56:44.810 ,0,0,0.,24.0,0.,24.0
1979-07-02 04:57:12.410 ,0,0,0.,24.0,0.,24.0
1979-07-02 04:57:32.810 ,0,0,0.,24.0,0.,24.0
1979-07-02 04:57:56.810 ,3,1,0.,24.0,0.,24.0
1979-07-02 04:58:20.810 ,3,0,0.,24.0,0.,24.0
1979-07-02 04:58:44.810 ,2,1,0.,24.0,0.,24.0
1979-07-02 04:59:08.810 ,2,0,0.,24.0,0.,24.0
1979-07-02 04:59:32.810 ,1,1,0.,24.0,0.,24.0
1979-07-02 04:59:56.810 ,1,0,0.,24.0,0.,24.0
1979-07-02 05:00:20.810 ,0,1,0.,24.0,0.,24.0
1979-07-02 05:00:44.810 ,0,0,0.,24.0,0.,24.0
1979-07-02 05:01:08.810 ,0,1,0.,24.0,0.,24.0
1979-07-02 05:01:32.810 ,0,0,0.,24.0,0.,24.0
1979-07-02 05:01:56.810 ,1,1,0.,24.0,0.,24.0
1979-07-02 05:02:20.810 ,1,0,0.,24.0,0.,24.0
1979-07-02 05:02:44.810 ,2,1,0.,24.0,0.,24.0
1979-07-02 05:03:08.810 ,2,0,0.,24.0,0.,24.0
1979-07-02 05:03:32.810 ,3,1,0.,24.0,0.,24.0
1979-07-02 05:03:56.810 ,3,0,0.,24.0,0.,24.0
1979-07-02 05:04:20.810 ,4,1,0.,24.0,0.,24.0
1979-07-02 05:04:44.810 ,4,0,0.,24.0,0.,24.0
1979-07-02 05:05:08.810 ,5,1,0.,24.0,0.,24.0
1979-07-02 05:05:32.810 ,5,0,0.,24.0,0.,24.0
1979-07-02 05:05:56.810 ,6,1,0.,24.0,0.,24.0
1979-07-02 05:06:20.810 ,6,0,0.,24.0,0.,24.0
1979-07-02 05:06:44.810 ,7,0,0.,24.0,0.,24.0
1979-07-02 05:07:08.810 ,7,0,0.,24.0,0.,24.0
1979-07-02 05:07:32.810 ,3,1,0.,24.0,0.,24.0
1979-07-02 05:07:56.810 ,0,1,0.,24.0,0.,24.0
1979-07-02 05:08:20.810 ,4,1,0.,24.0,0.,24.0
1979-07-02 05:08:44.810 ,7,1,0.,24.0,0.,24.0
1979-07-02 05:09:08.810 ,3,1,0.,24.0,0.,24.0
1979-07-02 05:09:32.810 ,0,1,0.,24.0,0.,24.0
1979-07-02 05:09:56.810 ,4,1,0.,24.0,0.,24.0
1979-07-02 05:10:20.810 ,7,1,0.,24.0,0.,24.0
1979-07-02 05:10:44.810 ,3,1,0.,24.0,0.,24.0
1979-07-02 05:11:08.810 ,0,1,0.,24.0,0.,24.0
1979-07-02 05:11:32.810 ,4,1,0.,24.0,0.,24.0
1979-07-02 05:11:56.810 ,7,1,0.,24.0,0.,24.0
1979-07-02 05:12:20.810 ,3,1,0.,24.0,0.,24.0
1979-07-02 05:12:44.810 ,0,1,0.,24.0,0.,24.0
1979-07-02 05:13:08.810 ,4,1,0.,24.0,0.,24.0
1979-07-02 05:13:32.810 ,7,1,0.,24.0,0.,24.0
1979-07-02 05:13:56.810 ,3,1,0.,24.0,0.,24.0
1979-07-02 05:14:20.810 ,0,1,0.,24.0,0.,24.0
1979-07-02 05:14:44.810 ,4,1,0.,24.0,0.,24.0
1979-07-02 05:15:08.810 ,7,1,0.,24.0,0.,24.0
1979-07-02 05:15:32.810 ,3,1,0.,24.0,0.,24.0
1979-07-02 05:15:56.810 ,0,1,0.,24.0,0.,24.0
1979-07-02 05:16:20.810 ,4,1,0.,24.0,0.,24.0
1979-07-02 05:16:44.810 ,7,1,0.,24.0,0.,24.0
1979-07-02 05:17:08.810 ,3,1,0.,24.0,0.,24.0
1979-07-02 05:17:32.810 ,0,1,0.,24.0,0.,24.0
1979-07-02 05:17:56.810 ,0,0,0.,24.0,0.,24.0
1979-07-02 05:18:20.810 ,0,0,0.,24.0,0.,24.0
1979-07-02 05:18:44.810 ,5,1,0.,24.0,0.,24.0
1979-07-02 05:19:08.810 ,5,0,0.,24.0,0.,24.0
1979-07-02 05:19:32.810 ,4,1,0.,24.0,0.,24.0
1979-07-02 05:19:56.810 ,4,0,0.,24.0,0.,24.0
1979-07-02 05:20:20.810 ,3,1,1.,24.0,0.,24.0
1979-07-02 05:20:44.810 ,3,0,0.,24.0,0.,24.0
1979-07-02 05:21:08.810 ,2,1,0.,24.0,0.,24.0
1979-07-02 05:21:32.810 ,2,0,0.,24.0,0.,24.0
1979-07-02 05:21:56.810 ,1,1,0.,24.0,0.,24.0
1979-07-02 05:22:20.810 ,1,0,0.,24.0,0.,24.0
1979-07-02 05:22:44.810 ,0,1,0.,24.0,0.,24.0
1979-07-02 05:23:08.810 ,0,0,0.,24.0,0.,24.0
1979-07-02 05:23:32.810 ,0,1,0.,24.0,0.,24.0
1979-07-02 05:23:56.810 ,0,0,0.,24.0,0.,24.0
1979-07-02 05:24:20.810 ,1,1,0.,24.0,0.,24.0
1979-07-02 05:24:44.810 ,1,0,0.,24.0,0.,24.0
1979-07-02 05:25:08.810 ,2,1,0.,24.0,0.,24.0
1979-07-02 05:25:32.810 ,2,0,0.,24.0,0.,24.0
1979-07-02 05:25:56.810 ,3,1,0.,24.0,0.,24.0
1979-07-02 05:26:20.810 ,3,0,0.,24.0,0.,24.0
1979-07-02 05:26:44.810 ,4,1,0.,24.0,0.,24.0
1979-07-02 05:27:08.810 ,4,0,0.,24.0,0.,24.0
1979-07-02 05:27:32.810 ,5,1,0.,24.0,0.,24.0
1979-07-02 05:27:56.810 ,5,0,0.,24.0,0.,24.0
1979-07-02 05:28:20.810 ,6,1,0.,24.0,0.,24.0
1979-07-02 05:28:44.810 ,6,0,0.,24.0,0.,24.0
1979-07-02 05:29:08.810 ,7,1,0.,24.0,0.,24.0
1979-07-02 05:29:32.810 ,7,0,0.,24.0,0.,24.0
1979-07-02 05:29:56.810 ,7,1,0.,24.0,0.,24.0
1979-07-02 05:30:20.810 ,7,0,0.,24.0,0.,24.0
1979-07-02 05:30:44.810 ,6,1,0.,24.0,0.,24.0
1979-07-02 05:31:08.810 ,6,0,0.,24.0,0.,24.0
1979-07-02 05:31:32.810 ,5,1,0.,24.0,0.,24.0
1979-07-02 05:31:56.810 ,5,0,0.,24.0,0.,24.0
1979-07-02 05:32:20.810 ,4,1,0.,24.0,0.,24.0
1979-07-02 05:32:44.810 ,4,0,0.,24.0,0.,24.0
1979-07-02 05:33:08.810 ,3,1,0.,24.0,0.,24.0
1979-07-02 05:33:32.810 ,3,0,0.,24.0,0.,24.0
1979-07-02 05:33:56.810 ,2,1,0.,24.0,0.,24.0
1979-07-02 05:34:20.810 ,2,0,0.,24.0,0.,24.0
1979-07-02 05:34:44.810 ,1,1,0.,24.0,0.,24.0
1979-07-02 05:35:08.810 ,1,0,0.,24.0,0.,24.0
1979-07-02 05:35:32.810 ,0,1,0.,24.0,0.,24.0
1979-07-02 05:35:56.810 ,0,0,0.,24.0,0.,24.0
1979-07-02 05:36:20.810 ,0,1,0.,24.0,0.,24.0
1979-07-02 05:36:44.810 ,0,0,0.,24.0,0.,24.0
1979-07-02 05:37:08.810 ,1,1,0.,24.0,0.,24.0
1979-07-02 05:37:32.810 ,1,0,0.,24.0,0.,24.0
1979-07-02 05:37:56.810 ,2,1,0.,24.0,0.,24.0
1979-07-02 05:38:20.810 ,2,0,0.,24.0,0.,24.0
1979-07-02 05:38:44.810 ,3,1,0.,24.0,0.,24.0
1979-07-02 05:39:08.810 ,3,0,0.,24.0,0.,24.0
1979-07-02 05:39:32.810 ,4,1,0.,24.0,0.,24.0
1979-07-02 05:39:56.810 ,4,0,0.,24.0,0.,24.0
1979-07-02 05:40:20.810 ,5,1,0.,24.0,0.,24.0
1979-07-02 05:40:44.810 ,5,0,0.,24.0,0.,24.0
1979-07-02 05:41:08.810 ,6,1,0.,24.0,0.,24.0
1979-07-02 05:41:32.810 ,6,0,0.,24.0,0.,24.0
1979-07-02 05:41:56.810 ,7,1,0.,24.0,0.,24.0
1979-07-02 05:42:20.810 ,7,0,0.,24.0,0.,24.0
1979-07-02 05:42:44.810 ,7,1,0.,24.0,0.,24.0
1979-07-02 05:43:08.810 ,7,0,0.,24.0,0.,24.0
1979-07-02 05:43:32.810 ,6,1,0.,24.0,0.,24.0
1979-07-02 05:43:56.810 ,6,0,0.,24.0,0.,24.0
1979-07-02 05:44:20.810 ,5,1,0.,24.0,0.,24.0
1979-07-02 05:44:44.810 ,5,0,0.,24.0,0.,24.0
1979-07-02 05:45:08.810 ,4,1,0.,24.0,0.,24.0
1979-07-02 05:45:32.810 ,4,0,0.,24.0,0.,24.0
1979-07-02 05:45:56.810 ,3,1,0.,24.0,0.,24.0
1979-07-02 05:46:20.810 ,3,0,0.,24.0,0.,24.0
1979-07-02 05:46:44.810 ,2,1,0.,24.0,0.,24.0
1979-07-02 05:47:08.810 ,2,0,0.,24.0,0.,24.0
1979-07-02 05:47:32.810 ,1,1,0.,24.0,0.,24.0
1979-07-02 05:47:56.810 ,1,0,0.,24.0,0.,24.0
1979-07-02 05:48:20.810 ,0,1,0.,24.0,0.,24.0
1979-07-02 05:48:44.810 ,0,0,0.,24.0,0.,24.0
1979-07-02 05:49:08.810 ,0,1,0.,24.0,0.,24.0
1979-07-02 05:49:32.810 ,0,0,0.,24.0,0.,24.0
1979-07-02 05:49:56.810 ,1,1,0.,24.0,0.,24.0
1979-07-02 05:50:20.810 ,1,0,0.,24.0,0.,24.0
1979-07-02 05:50:44.810 ,2,1,0.,24.0,0.,24.0
1979-07-02 05:51:08.810 ,2,0,0.,24.0,0.,24.0
1979-07-02 05:51:32.810 ,3,1,0.,24.0,0.,24.0
1979-07-02 05:51:56.810 ,3,0,0.,24.0,0.,24.0
1979-07-02 05:52:20.810 ,4,1,0.,24.0,0.,24.0
1979-07-02 05:52:44.810 ,4,0,0.,24.0,0.,24.0
1979-07-02 05:53:08.810 ,5,1,0.,24.0,0.,24.0
1979-07-02 05:53:32.810 ,5,0,0.,24.0,0.,24.0
1979-07-02 05:53:56.810 ,6,1,0.,24.0,0.,24.0
1979-07-02 05:54:20.810 ,6,0,0.,24.0,0.,24.0
1979-07-02 05:54:44.810 ,7,0,0.,24.0,0.,24.0
1979-07-02 05:55:08.810 ,7,0,0.,24.0,0.,24.0
1979-07-02 05:55:32.810 ,3,1,0.,24.0,0.,24.0
1979-07-02 05:55:56.810 ,0,1,0.,24.0,0.,24.0
1979-07-02 05:56:20.810 ,4,1,0.,24.0,0.,24.0
1979-07-02 05:56:44.810 ,7,1,0.,24.0,0.,24.0
1979-07-02 05:57:08.810 ,3,1,0.,24.0,0.,24.0
1979-07-02 05:57:32.810 ,0,1,0.,24.0,0.,24.0
1979-07-02 05:57:56.810 ,4,1,0.,24.0,0.,24.0
1979-07-02 05:58:20.810 ,7,1,0.,24.0,0.,24.0
1979-07-02 05:58:44.810 ,3,1,0.,24.0,0.,24.0
1979-07-02 05:59:08.810 ,0,1,0.,24.0,0.,24.0
1979-07-02 05:59:32.810 ,4,1,0.,24.0,0.,24.0
1979-07-02 05:59:56.810 ,7,1,0.,24.0,0.,24.0
1979-07-02 06:00:20.810 ,3,1,0.,24.0,0.,24.0
